This demonstration page uses our WeatherBlox Daily Observations layout. Learn more.

Left ArrowRight Arrow

38.80484, -77.04692

Hourly Observations for November 10, 2020

Temp ( °F °C ) Dew Point ( °F °C ) Humidity (%) Winds ( mph kmh ) Pressure ( in mb ) Visibility ( mi km ) Precip ( " mm )
12:52 am 00:52 Mostly Clear 58 14.4 53 11.7 84 84 S 6 9 30.26 1025 10 16.0934 0 0
1:52 am 01:52 Mostly Clear 57 13.9 53 11.7 87 87 SSE 3 6 30.24 1024 10 16.0934 0 0
2:52 am 02:52 Mostly Clear 56 13.3 53 11.7 90 90 Calm 30.25 1025 10 16.0934 0 0
3:52 am 03:52 Mostly Clear 54 12.2 52 11.1 93 93 Calm 30.24 1024 10 16.0934 0 0
4:52 am 04:52 Mostly Cloudy 54 12.2 53 11.7 97 97 S 3 6 30.24 1024 10 16.0934 0 0
5:52 am 05:52 Mostly Clear 54 12.2 52 11.1 93 93 SW 3 6 30.24 1024 10 16.0934 0 0
6:52 am 06:52 Mostly Sunny 55 12.8 52 11.1 90 90 SSE 3 6 30.24 1024 10 16.0934 0 0
7:52 am 07:52 Partly Cloudy 57 13.9 54 12.2 90 90 Calm 30.24 1024 10 16.0934 0 0
8:52 am 08:52 Mostly Sunny 61 16.1 56 13.3 84 84 S 5 7 30.25 1024 10 16.0934 0 0
9:52 am 09:52 Mostly Sunny 66 18.9 59 15 78 78 S 10 17 30.24 1024 10 16.0934 0 0
10:52 am 10:52 Mostly Sunny 70 21.1 61 16.1 73 73 S 9 15 30.22 1024 10 16.0934 0 0
11:52 am 11:52 Mostly Sunny 72 22.2 61 16.1 68 68 S 9 15 30.19 1023 10 16.0934 0 0
12:52 pm 12:52 Partly Cloudy 75 23.9 60 15.6 60 60 S 13 20 30.16 1021 10 16.0934 0 0
1:52 pm 13:52 Partly Cloudy 74 23.3 59 15 60 60 S 10 17 30.14 1021 10 16.0934 0 0
2:52 pm 14:52 Partly Cloudy 74 23.3 59 15 60 60 S 10 17 30.12 1020 10 16.0934 0 0
3:52 pm 15:52 Partly Cloudy 72 22.2 59 15 64 64 S 10 17 30.12 1020 10 16.0934 0 0
5:52 pm 17:52 Mostly Clear 67 19.4 60 15.6 79 79 S 6 9 30.11 1020 10 16.0934 0 0
6:52 pm 18:52 Mostly Clear 66 18.9 60 15.6 81 81 S 8 13 30.12 1020 10 16.0934 0 0
7:52 pm 19:52 Mostly Clear 65 18.3 59 15 81 81 S 8 13 30.12 1020 10 16.0934 0 0
8:52 pm 20:52 Mostly Clear 64 17.8 60 15.6 87 87 S 8 13 30.12 1020 10 16.0934 0 0
9:52 pm 21:52 Mostly Clear 63 17.2 59 15 87 87 SSW 7 11 30.12 1020 10 16.0934 0 0
10:52 pm 22:52 Mostly Clear 63 17.2 60 15.6 90 90 S 7 11 30.11 1020 10 16.0934 0 0
11:52 pm 23:52 Mostly Clear 64 17.8 60 15.6 87 87 S 6 9 30.11 1020 10 16.0934 0 0

Powered by AerisWeather